This demonstration page uses our WeatherBlox Daily Observations layout. Learn more.

Left ArrowRight Arrow

39.92423, -83.80882

Hourly Observations for August 20, 2021

Temp ( °F °C ) Dew Point ( °F °C ) Humidity (%) Winds ( mph kmh ) Pressure ( in mb ) Visibility ( mi km ) Precip ( " mm )
12:03 am 00:03 Mostly Cloudy with Mist and Fog 66 19 N/A N/A Calm 30.04 1017 1 1 0.00 0.00
12:18 am 00:18 Mostly Clear with Mist and Fog 64 18 N/A N/A Calm 30.03 1017 1 2 0.00 0.00
12:26 am 00:26 Hazy 64 18 N/A N/A Calm 30.04 1017 6 10 0.00 0.00
12:53 am 00:53 Clear with Mist and Fog 64 18 N/A N/A Calm 30.04 1017 2 3 0.00 0.00
12:56 am 00:56 Mostly Cloudy with Mist and Fog 64 18 N/A N/A Calm 30.04 1017 1 1 0.00 0.00
1:08 am 01:08 Mostly Clear with Mist and Fog 66 19 N/A N/A Calm 30.03 1017 1 2 0.00 0.00
1:11 am 01:11 Mostly Clear with Mist and Fog 66 19 N/A N/A Calm 30.03 1017 3 5 0.00 0.00
1:24 am 01:24 Mostly Clear with Mist and Fog 66 19 N/A N/A Calm 30.03 1017 2 3 0.00 0.00
1:27 am 01:27 Mostly Cloudy with Fog 66 19 N/A N/A Calm 30.03 1017 1 1 0.00 0.00
1:38 am 01:38 Mostly Cloudy with Mist and Fog 64 18 N/A N/A Calm 30.03 1017 1 2 0.00 0.00
1:43 am 01:43 Mostly Cloudy with Fog 64 18 N/A N/A Calm 30.03 1017 1 1 0.00 0.00
1:50 am 01:50 Mostly Cloudy with Mist and Fog 64 18 N/A N/A Calm 30.04 1017 1 2 0.00 0.00
1:53 am 01:53 Mostly Cloudy with Mist and Fog 64 18 N/A N/A Calm 30.04 1017 3 4 0.00 0.00
1:56 am 01:56 Mostly Cloudy with Mist and Fog 64 18 N/A N/A Calm 30.04 1017 2 2 0.00 0.00
1:58 am 01:58 Mostly Cloudy with Mist and Fog 64 18 N/A N/A Calm 30.04 1017 1 1 0.00 0.00
2:06 am 02:06 Mostly Cloudy with Fog 64 18 N/A N/A Calm 30.03 1017 1 1 0.00 0.00
2:50 am 02:50 Mostly Cloudy with Mist and Fog 66 19 N/A N/A Calm 30.03 1017 1 2 0.00 0.00
2:56 am 02:56 Mostly Cloudy with Fog 66 19 N/A N/A Calm 30.03 1017 1 1 0.00 0.00
3:05 am 03:05 Clear with Fog 64 18 N/A N/A Calm 30.03 1017 0 0 0.00 0.00
3:13 am 03:13 Clear with Fog 64 18 N/A N/A Calm 30.03 1017 1 1 0.00 0.00
3:23 am 03:23 Clear with Mist and Fog 64 18 N/A N/A Calm 30.02 1017 1 1 0.00 0.00
3:37 am 03:37 Mostly Cloudy with Mist and Fog 64 18 N/A N/A Calm 30.02 1017 1 1 0.00 0.00
3:47 am 03:47 Mostly Cloudy with Fog 63 17 N/A N/A Calm 30.02 1017 0 0 0.00 0.00
3:56 am 03:56 Mostly Cloudy with Fog 64 18 N/A N/A Calm 30.02 1017 1 1 0.00 0.00
4:22 am 04:22 Mostly Cloudy with Fog 63 17 N/A N/A Calm 30.02 1017 0 0 0.00 0.00
4:39 am 04:39 Cloudy with Fog 63 17 N/A N/A Calm 30.01 1016 1 1 0.00 0.00
4:46 am 04:46 Cloudy with Fog 63 17 N/A N/A Calm 30.01 1016 0 0 0.00 0.00
4:56 am 04:56 Cloudy with Fog 63 17 N/A N/A Calm 30.02 1017 0 0 0.00 0.00
5:22 am 05:22 Cloudy with Fog 63 17 N/A N/A Calm 30.01 1016 1 1 0.00 0.00
5:35 am 05:35 Mostly Cloudy with Mist and Fog 64 18 N/A N/A Calm 30.01 1016 1 2 0.00 0.00
5:40 am 05:40 Mostly Cloudy with Mist and Fog 64 18 N/A N/A Calm 30.01 1016 2 3 0.00 0.00
5:47 am 05:47 Cloudy with Haze 63 17 N/A N/A Calm 30.00 1016 5 8 0.00 0.00
5:56 am 05:56 Cloudy with Mist and Fog 63 17 N/A N/A ENE 5 7 30.01 1016 3 4 0.00 0.00
6:00 am 06:00 Cloudy with Mist and Fog 63 17 N/A N/A ENE 3 6 30.00 1016 1 2 0.00 0.00
6:03 am 06:03 Cloudy with Fog 63 17 N/A N/A ENE 3 6 30.00 1016 1 1 0.00 0.00
6:15 am 06:15 Cloudy with Fog 61 16 N/A N/A Calm 30.02 1017 0 0 0.00 0.00
6:56 am 06:56 Cloudy with Fog 62 16.7 62 16.7 100 100 Calm 30.02 1017 0 0 0.00 0.00
7:29 am 07:29 Cloudy with Mist and Fog 63 17 N/A N/A Calm 30.02 1017 1 1 0.00 0.00
7:31 am 07:31 Cloudy with Mist and Fog 63 17 N/A N/A Calm 30.02 1017 1 2 0.00 0.00
7:35 am 07:35 Cloudy with Haze 63 17 N/A N/A Calm 30.02 1017 4 6 0.00 0.00
7:44 am 07:44 Cloudy with Mist and Fog 64 18 64 18 100 100 Calm 30.02 1017 2 3 0.00 0.00
7:56 am 07:56 Mostly Cloudy with Mist and Fog 65 18.3 64 17.8 97 97 Calm 30.03 1017 3 5 0.00 0.00
8:09 am 08:09 Partly Cloudy with Mist and Fog 66 19 N/A N/A E 3 6 30.02 1016 3 5 0.00 0.00
8:18 am 08:18 Partly Cloudy with Mist and Fog 66 19 N/A N/A E 3 6 30.02 1016 3 4 0.00 0.00
8:35 am 08:35 Sunny with Mist and Fog 68 20 N/A N/A E 5 7 30.02 1017 3 5 0.00 0.00
8:56 am 08:56 Hazy 70 21 N/A N/A Calm 30.03 1017 6 10 0.00 0.00
9:56 am 09:56 Sunny 75 24 N/A N/A ENE 5 7 30.03 1017 10 16 0.00 0.00
10:56 am 10:56 Mostly Sunny 79 26.1 73 22.8 82 82 E 8 13 30.03 1017 10 16 0.00 0.00
11:56 am 11:56 Partly Cloudy 81 27.2 73 22.8 77 77 E 6 9 30.03 1017 10 16 0.00 0.00
12:56 pm 12:56 Sunny 82 27.8 72 22.2 72 72 NE 6 9 30.02 1017 10 16 0.00 0.00
1:56 pm 13:56 Mostly Cloudy 82 27.8 73 22.8 74 74 SE 7 11 30.01 1016 10 16 0.00 0.00
2:56 pm 14:56 Mostly Sunny 84 28.9 71 21.7 65 65 ESE 8 13 29.98 1015 10 16 0.00 0.00
3:56 pm 15:56 Sunny 84 28.9 70 21.1 63 63 ESE 5 7 29.96 1015 8 13 0.00 0.00
4:56 pm 16:56 Mostly Sunny 83 28.3 70 21.1 65 65 ESE 8 13 29.94 1014 10 16 0.00 0.00
5:56 pm 17:56 Sunny 83 28.3 68 20 61 61 ESE 5 7 29.93 1014 8 13 0.00 0.00
6:56 pm 18:56 Sunny 82 27.8 71 21.7 69 69 SSE 5 7 29.93 1014 10 16 0.00 0.00
7:56 pm 19:56 Sunny 77 25 74 23.3 90 90 WSW 3 6 29.94 1014 10 16 0.00 0.00
8:56 pm 20:56 Mostly Cloudy 75 23.9 74 23.3 96 96 NNW 8 13 29.94 1014 10 16 0.00 0.00
9:56 pm 21:56 Mostly Clear 72 22.2 72 22.2 100 100 NE 3 6 29.95 1014 10 16 0.00 0.00
10:56 pm 22:56 Clear 70 21 N/A N/A Calm 29.96 1014 10 16 0.00 0.00
11:56 pm 23:56 Clear 68 20 N/A N/A Calm 29.94 1014 9 14 0.00 0.00

Powered by AerisWeather